Time,TemperatureF,DewpointF,PressureIn,WindDirection,WindDirectionDegrees,WindSpeedMPH,WindSpeedGustMPH,Humidity,HourlyPrecipIn,Conditions,Clouds,dailyrainin,SolarRadiationWatts/m^2,SoftwareType,DateUTC
2013-02-02 00:00:00,12.8,7.2,30.30,South,173,5.0,9.0,78,0.00,,,0.00,0,Wunderground v.1.15,2013-02-02 05:00:00,
2013-02-02 00:05:00,12.9,7.3,30.29,SSW,205,5.0,5.0,78,0.00,,,0.00,0,Wunderground v.1.15,2013-02-02 05:05:00,
2013-02-02 00:10:00,12.9,7.3,30.29,South,190,5.0,5.0,78,0.00,,,0.00,0,Wunderground v.1.15,2013-02-02 05:10:00,
2013-02-02 00:15:00,13.0,7.4,30.29,SW,218,5.0,6.0,78,0.00,,,0.00,0,Wunderground v.1.15,2013-02-02 05:15:00,
2013-02-02 00:20:00,13.0,7.4,30.29,SW,235,4.0,6.0,78,0.00,,,0.00,0,Wunderground v.1.15,2013-02-02 05:20:00,
2013-02-02 00:25:00,13.0,7.4,30.29,SW,236,4.0,4.0,78,0.00,,,0.00,0,Wunderground v.1.15,2013-02-02 05:25:00,
2013-02-02 00:30:00,13.1,7.5,30.29,SSW,200,5.0,5.0,78,0.00,,,0.00,0,Wunderground v.1.15,2013-02-02 05:30:00,
2013-02-02 00:40:00,13.3,7.7,30.29,SSW,213,5.0,10.0,78,0.00,,,0.00,0,Wunderground v.1.15,2013-02-02 05:40:00,
2013-02-02 00:45:00,13.2,7.6,30.29,SSW,213,4.0,4.0,78,0.00,,,0.00,0,Wunderground v.1.15,2013-02-02 05:45:00,
2013-02-02 00:50:00,13.3,7.7,30.28,SW,232,4.0,10.0,78,0.00,,,0.00,0,Wunderground v.1.15,2013-02-02 05:50:00,
2013-02-02 00:55:00,13.3,8.0,30.29,SSW,208,4.0,4.0,79,0.00,,,0.00,0,Wunderground v.1.15,2013-02-02 05:55:00,
2013-02-02 01:05:00,13.6,8.3,30.28,SW,214,5.0,5.0,79,0.00,,,0.00,0,Wunderground v.1.15,2013-02-02 06:05:00,
2013-02-02 01:15:00,13.7,8.4,30.28,SW,227,6.0,8.0,79,0.00,,,0.00,0,Wunderground v.1.15,2013-02-02 06:15:00,
2013-02-02 01:25:00,13.9,8.3,30.27,SW,218,5.0,6.0,78,0.00,,,0.00,0,Wunderground v.1.15,2013-02-02 06:25:00,
2013-02-02 01:30:00,14.0,8.7,30.27,SSW,205,5.0,12.0,79,0.00,,,0.00,0,Wunderground v.1.15,2013-02-02 06:30:00,
2013-02-02 01:35:00,14.0,8.4,30.27,SW,228,6.0,6.0,78,0.00,,,0.00,0,Wunderground v.1.15,2013-02-02 06:35:00,
2013-02-02 01:45:00,13.9,8.6,30.27,SW,233,5.0,5.0,79,0.00,,,0.00,0,Wunderground v.1.15,2013-02-02 06:45:00,
2013-02-02 01:50:00,13.9,8.6,30.27,SSW,205,5.0,8.0,79,0.00,,,0.00,0,Wunderground v.1.15,2013-02-02 06:50:00,
2013-02-02 01:55:00,13.8,8.5,30.26,SSW,207,5.0,5.0,79,0.00,,,0.00,0,Wunderground v.1.15,2013-02-02 06:55:00,
2013-02-02 02:05:00,13.7,8.4,30.27,SSW,204,4.0,4.0,79,0.00,,,0.00,0,Wunderground v.1.15,2013-02-02 07:05:00,
2013-02-02 02:15:00,13.9,8.6,30.26,South,184,5.0,5.0,79,0.00,,,0.00,0,Wunderground v.1.15,2013-02-02 07:15:00,
2013-02-02 02:20:00,13.8,8.5,30.26,SSW,192,6.0,6.0,79,0.00,,,0.00,0,Wunderground v.1.15,2013-02-02 07:20:00,
2013-02-02 02:25:00,13.9,8.6,30.26,SSW,195,4.0,7.0,79,0.00,,,0.00,0,Wunderground v.1.15,2013-02-02 07:25:00,
2013-02-02 02:30:00,13.9,8.6,30.26,SSW,211,4.0,12.0,79,0.00,,,0.00,0,Wunderground v.1.15,2013-02-02 07:30:00,
2013-02-02 02:35:00,13.9,8.6,30.26,SSW,195,5.0,12.0,79,0.00,,,0.00,0,Wunderground v.1.15,2013-02-02 07:35:00,
2013-02-02 02:40:00,14.0,9.0,30.26,SW,217,5.0,12.0,80,0.00,,,0.00,0,Wunderground v.1.15,2013-02-02 07:40:00,
2013-02-02 02:50:00,14.0,9.0,30.25,SW,217,5.0,12.0,80,0.00,,,0.00,0,Wunderground v.1.15,2013-02-02 07:50:00,
2013-02-02 02:55:00,14.0,9.0,30.25,South,173,5.0,5.0,80,0.00,,,0.00,0,Wunderground v.1.15,2013-02-02 07:55:00,
2013-02-02 03:05:00,14.0,9.0,30.25,South,190,4.0,4.0,80,0.00,,,0.00,0,Wunderground v.1.15,2013-02-02 08:05:00,
2013-02-02 03:15:00,14.0,9.0,30.24,SW,218,4.0,6.0,80,0.00,,,0.00,0,Wunderground v.1.15,2013-02-02 08:15:00,
2013-02-02 03:20:00,13.9,8.9,30.24,SSW,194,4.0,6.0,80,0.00,,,0.00,0,Wunderground v.1.15,2013-02-02 08:20:00,
2013-02-02 03:30:00,14.0,9.2,30.24,South,182,5.0,13.0,81,0.00,,,0.00,0,Wunderground v.1.15,2013-02-02 08:30:00,
2013-02-02 03:35:00,14.0,11.4,30.23,SSW,209,6.0,6.0,89,0.00,,,0.00,0,Wunderground v.1.15,2013-02-02 08:35:00,
2013-02-02 03:40:00,14.0,9.2,30.23,SSW,205,5.0,13.0,81,0.00,,,0.00,0,Wunderground v.1.15,2013-02-02 08:40:00,
2013-02-02 03:50:00,14.1,9.3,30.23,SW,227,5.0,13.0,81,0.00,,,0.00,0,Wunderground v.1.15,2013-02-02 08:50:00,
2013-02-02 03:55:00,14.1,9.3,30.23,WSW,244,5.0,5.0,81,0.00,,,0.00,0,Wunderground v.1.15,2013-02-02 08:55:00,
2013-02-02 04:05:00,14.2,9.7,30.22,SSW,206,4.0,4.0,82,0.00,,,0.00,0,Wunderground v.1.15,2013-02-02 09:05:00,
2013-02-02 04:15:00,14.3,9.8,30.22,WSW,246,3.0,7.0,82,0.00,,,0.00,0,Wunderground v.1.15,2013-02-02 09:15:00,
2013-02-02 04:25:00,14.5,10.0,30.22,SSW,197,4.0,4.0,82,0.00,,,0.00,0,Wunderground v.1.15,2013-02-02 09:25:00,
2013-02-02 04:30:00,14.5,10.0,30.22,SSW,209,4.0,6.0,82,0.00,,,0.00,0,Wunderground v.1.15,2013-02-02 09:30:00,
2013-02-02 04:35:00,14.6,10.1,30.21,SW,224,5.0,5.0,82,0.00,,,0.00,0,Wunderground v.1.15,2013-02-02 09:35:00,
2013-02-02 04:40:00,14.8,10.3,30.21,SW,225,5.0,7.0,82,0.00,,,0.00,0,Wunderground v.1.15,2013-02-02 09:40:00,
2013-02-02 04:45:00,14.8,10.6,30.20,South,183,5.0,5.0,83,0.00,,,0.00,0,Wunderground v.1.15,2013-02-02 09:45:00,
2013-02-02 04:55:00,14.8,10.8,30.20,SSW,194,3.0,3.0,84,0.00,,,0.00,0,Wunderground v.1.15,2013-02-02 09:55:00,
2013-02-02 05:05:00,15.0,11.3,30.19,SSW,196,5.0,5.0,85,0.00,,,0.00,0,Wunderground v.1.15,2013-02-02 10:05:00,
2013-02-02 05:10:00,15.0,11.3,30.19,SSW,192,5.0,5.0,85,0.00,,,0.00,0,Wunderground v.1.15,2013-02-02 10:10:00,
2013-02-02 05:15:00,15.1,11.4,30.19,SSW,209,4.0,4.0,85,0.00,,,0.00,0,Wunderground v.1.15,2013-02-02 10:15:00,
2013-02-02 05:20:00,15.2,11.5,30.19,South,174,5.0,5.0,85,0.00,,,0.00,0,Wunderground v.1.15,2013-02-02 10:20:00,
2013-02-02 05:25:00,15.3,11.6,30.19,SSW,212,5.0,5.0,85,0.00,,,0.00,0,Wunderground v.1.15,2013-02-02 10:25:00,
2013-02-02 05:35:00,15.4,12.0,30.18,SSW,202,4.0,4.0,86,0.00,,,0.00,0,Wunderground v.1.15,2013-02-02 10:35:00,
2013-02-02 05:45:00,15.5,12.1,30.17,SW,223,4.0,4.0,86,0.00,,,0.00,0,Wunderground v.1.15,2013-02-02 10:45:00,
2013-02-02 05:50:00,15.6,12.2,30.17,SSW,195,5.0,5.0,86,0.00,,,0.00,0,Wunderground v.1.15,2013-02-02 10:50:00,
2013-02-02 05:55:00,15.6,12.2,30.17,SSW,206,5.0,5.0,86,0.00,,,0.00,0,Wunderground v.1.15,2013-02-02 10:55:00,
2013-02-02 06:05:00,15.6,12.2,30.17,SSW,195,6.0,6.0,86,0.00,,,0.00,0,Wunderground v.1.15,2013-02-02 11:05:00,
2013-02-02 06:10:00,15.7,12.5,30.17,SSW,194,5.0,6.0,87,0.00,,,0.00,0,Wunderground v.1.15,2013-02-02 11:10:00,
2013-02-02 06:15:00,15.7,12.3,30.16,WSW,247,5.0,5.0,86,0.00,,,0.00,0,Wunderground v.1.15,2013-02-02 11:15:00,
2013-02-02 06:25:00,15.8,12.6,30.15,South,189,5.0,5.0,87,0.00,,,0.00,0,Wunderground v.1.15,2013-02-02 11:25:00,
2013-02-02 06:35:00,15.9,12.7,30.16,SW,215,5.0,11.0,87,0.00,,,0.00,0,Wunderground v.1.15,2013-02-02 11:35:00,
2013-02-02 06:40:00,15.9,12.7,30.15,South,186,5.0,11.0,87,0.00,,,0.00,0,Wunderground v.1.15,2013-02-02 11:40:00,
2013-02-02 06:45:00,15.9,12.7,30.15,South,188,4.0,4.0,87,0.00,,,0.00,0,Wunderground v.1.15,2013-02-02 11:45:00,
2013-02-02 06:50:00,15.9,12.7,30.15,South,190,4.0,5.0,87,0.00,,,0.00,0,Wunderground v.1.15,2013-02-02 11:50:00,
2013-02-02 06:55:00,16.0,12.8,30.15,SSW,195,5.0,5.0,87,0.00,,,0.00,0,Wunderground v.1.15,2013-02-02 11:55:00,
2013-02-02 07:05:00,16.1,12.9,30.15,South,188,6.0,9.0,87,0.00,,,0.00,0,Wunderground v.1.15,2013-02-02 12:05:00,
2013-02-02 07:10:00,16.2,13.0,30.15,South,187,6.0,9.0,87,0.00,,,0.00,0,Wunderground v.1.15,2013-02-02 12:10:00,
2013-02-02 07:15:00,16.2,13.3,30.14,SSE,164,4.0,9.0,88,0.00,,,0.00,0,Wunderground v.1.15,2013-02-02 12:15:00,
2013-02-02 07:20:00,16.2,13.3,30.14,South,186,4.0,9.0,88,0.00,,,0.00,0,Wunderground v.1.15,2013-02-02 12:20:00,
2013-02-02 07:25:00,16.3,13.4,30.14,South,172,6.0,9.0,88,0.00,,,0.00,0,Wunderground v.1.15,2013-02-02 12:25:00,
2013-02-02 07:35:00,16.4,13.5,30.14,South,189,7.0,7.0,88,0.00,,,0.00,0,Wunderground v.1.15,2013-02-02 12:35:00,
2013-02-02 07:40:00,16.3,13.4,30.14,SSE,165,6.0,9.0,88,0.00,,,0.00,0,Wunderground v.1.15,2013-02-02 12:40:00,
2013-02-02 07:50:00,16.4,13.5,30.13,SSW,207,6.0,11.0,88,0.00,,,0.00,0,Wunderground v.1.15,2013-02-02 12:50:00,
2013-02-02 08:00:00,16.5,13.8,30.14,South,182,7.0,7.0,89,0.00,,,0.00,9,Wunderground v.1.15,2013-02-02 13:00:00,
2013-02-02 08:05:00,16.5,13.8,30.13,SSE,159,8.0,10.0,89,0.00,,,0.00,12,Wunderground v.1.15,2013-02-02 13:05:00,
2013-02-02 08:15:00,16.6,13.9,30.13,SSW,198,6.0,7.0,89,0.00,,,0.00,26,Wunderground v.1.15,2013-02-02 13:15:00,
2013-02-02 08:20:00,16.7,14.0,30.13,South,184,5.0,5.0,89,0.00,,,0.00,35,Wunderground v.1.15,2013-02-02 13:20:00,
2013-02-02 08:25:00,16.7,14.0,30.13,South,178,5.0,6.0,89,0.00,,,0.00,35,Wunderground v.1.15,2013-02-02 13:25:00,
2013-02-02 08:30:00,16.8,14.1,30.13,South,180,5.0,11.0,89,0.00,,,0.00,40,Wunderground v.1.15,2013-02-02 13:30:00,
2013-02-02 08:40:00,16.9,14.2,30.12,South,191,6.0,6.0,89,0.00,,,0.00,56,Wunderground v.1.15,2013-02-02 13:40:00,
2013-02-02 08:45:00,17.0,14.3,30.12,SSW,205,6.0,7.0,89,0.00,,,0.00,65,Wunderground v.1.15,2013-02-02 13:45:00,
2013-02-02 08:50:00,17.1,14.4,30.12,SW,220,5.0,11.0,89,0.00,,,0.00,74,Wunderground v.1.15,2013-02-02 13:50:00,
2013-02-02 08:55:00,17.3,14.6,30.12,South,182,7.0,9.0,89,0.00,,,0.00,70,Wunderground v.1.15,2013-02-02 13:55:00,
2013-02-02 09:05:00,17.4,14.5,30.12,SSW,194,8.0,8.0,88,0.00,,,0.00,88,Wunderground v.1.15,2013-02-02 14:05:00,
2013-02-02 09:15:00,17.6,14.7,30.11,SSW,194,7.0,11.0,88,0.00,,,0.00,86,Wunderground v.1.15,2013-02-02 14:15:00,
2013-02-02 09:20:00,17.7,14.8,30.11,SSW,195,7.0,11.0,88,0.00,,,0.00,84,Wunderground v.1.15,2013-02-02 14:20:00,
2013-02-02 09:30:00,17.9,14.7,30.11,SSE,168,7.0,11.0,87,0.00,,,0.00,98,Wunderground v.1.15,2013-02-02 14:30:00,
2013-02-02 09:40:00,18.1,15.1,30.11,South,182,7.0,12.0,88,0.00,,,0.00,118,Wunderground v.1.15,2013-02-02 14:40:00,
2013-02-02 09:45:00,18.2,15.2,30.10,SSW,200,7.0,7.0,88,0.00,,,0.00,132,Wunderground v.1.15,2013-02-02 14:45:00,
2013-02-02 09:50:00,18.3,15.3,30.10,SSW,206,7.0,11.0,88,0.00,,,0.00,148,Wunderground v.1.15,2013-02-02 14:50:00,
2013-02-02 09:55:00,18.4,15.4,30.10,South,182,6.0,6.0,88,0.00,,,0.00,125,Wunderground v.1.15,2013-02-02 14:55:00,
2013-02-02 10:05:00,18.6,15.4,30.10,SSW,207,7.0,10.0,87,0.00,,,0.00,135,Wunderground v.1.15,2013-02-02 15:05:00,
2013-02-02 10:10:00,18.7,15.5,30.10,SSW,194,6.0,10.0,87,0.00,,,0.00,121,Wunderground v.1.15,2013-02-02 15:10:00,
2013-02-02 10:20:00,18.9,15.7,30.09,SSW,192,7.0,10.0,87,0.00,,,0.00,142,Wunderground v.1.15,2013-02-02 15:20:00,
2013-02-02 10:25:00,19.1,15.6,30.09,WSW,237,7.0,7.0,86,0.00,,,0.00,134,Wunderground v.1.15,2013-02-02 15:25:00,
2013-02-02 10:30:00,19.3,15.8,30.09,SW,219,6.0,10.0,86,0.00,,,0.00,146,Wunderground v.1.15,2013-02-02 15:30:00,
2013-02-02 10:35:00,19.5,18.1,30.09,South,184,7.0,14.0,94,0.00,,,0.00,178,Wunderground v.1.15,2013-02-02 15:35:00,
2013-02-02 10:45:00,19.8,16.0,30.08,South,184,7.0,7.0,85,0.00,,,0.00,239,Wunderground v.1.15,2013-02-02 15:45:00,
2013-02-02 10:55:00,20.1,16.3,30.08,South,188,7.0,8.0,85,0.00,,,0.00,229,Wunderground v.1.15,2013-02-02 15:55:00,
2013-02-02 11:05:00,20.2,16.4,30.08,SW,224,7.0,7.0,85,0.00,,,0.00,135,Wunderground v.1.15,2013-02-02 16:05:00,
2013-02-02 11:15:00,20.6,16.8,30.08,SSW,194,4.0,5.0,85,0.00,,,0.00,179,Wunderground v.1.15,2013-02-02 16:15:00,
2013-02-02 11:20:00,20.6,16.5,30.08,South,187,4.0,7.0,84,0.00,,,0.00,141,Wunderground v.1.15,2013-02-02 16:20:00,
2013-02-02 11:30:00,20.7,16.6,30.07,SSW,209,6.0,14.0,84,0.00,,,0.00,193,Wunderground v.1.15,2013-02-02 16:30:00,
2013-02-02 11:40:00,20.9,16.8,30.07,South,184,5.0,6.0,84,0.00,,,0.00,155,Wunderground v.1.15,2013-02-02 16:40:00,
2013-02-02 11:50:00,21.3,17.2,30.06,SSW,204,4.0,14.0,84,0.00,,,0.00,176,Wunderground v.1.15,2013-02-02 16:50:00,
2013-02-02 11:55:00,21.5,17.4,30.06,SSW,196,3.0,3.0,84,0.00,,,0.00,176,Wunderground v.1.15,2013-02-02 16:55:00,
2013-02-02 12:05:00,21.5,17.1,30.06,SSW,198,5.0,5.0,83,0.00,,,0.00,114,Wunderground v.1.15,2013-02-02 17:05:00,
2013-02-02 12:15:00,21.4,17.0,30.06,WSW,238,4.0,4.0,83,0.00,,,0.00,107,Wunderground v.1.15,2013-02-02 17:15:00,
2013-02-02 12:20:00,21.6,17.5,30.05,South,191,3.0,5.0,84,0.00,,,0.00,121,Wunderground v.1.15,2013-02-02 17:20:00,
2013-02-02 12:25:00,21.7,17.6,30.05,SSW,195,4.0,4.0,84,0.00,,,0.00,181,Wunderground v.1.15,2013-02-02 17:25:00,
2013-02-02 12:30:00,21.8,17.4,30.04,South,190,4.0,12.0,83,0.00,,,0.00,204,Wunderground v.1.15,2013-02-02 17:30:00,
2013-02-02 12:40:00,22.0,17.6,30.04,SW,217,4.0,12.0,83,0.00,,,0.00,120,Wunderground v.1.15,2013-02-02 17:40:00,
2013-02-02 12:45:00,22.0,17.9,30.03,SW,217,3.0,3.0,84,0.00,,,0.00,120,Wunderground v.1.15,2013-02-02 17:45:00,
2013-02-02 12:50:00,22.0,17.9,30.03,SW,235,3.0,12.0,84,0.00,,,0.00,134,Wunderground v.1.15,2013-02-02 17:50:00,
2013-02-02 12:55:00,22.1,18.0,30.03,SW,234,2.0,2.0,84,0.00,,,0.00,135,Wunderground v.1.15,2013-02-02 17:55:00,
2013-02-02 13:05:00,22.2,18.1,30.03,SW,236,2.0,2.0,84,0.00,,,0.00,125,Wunderground v.1.15,2013-02-02 18:05:00,
2013-02-02 13:15:00,22.3,18.5,30.03,SSW,211,2.0,2.0,85,0.00,,,0.00,123,Wunderground v.1.15,2013-02-02 18:15:00,
2013-02-02 13:20:00,22.3,20.3,30.02,SSW,206,3.0,3.0,92,0.00,,,0.00,123,Wunderground v.1.15,2013-02-02 18:20:00,
2013-02-02 13:30:00,22.3,18.5,30.02,SSW,198,2.0,11.0,85,0.00,,,0.00,135,Wunderground v.1.15,2013-02-02 18:30:00,
2013-02-02 13:35:00,22.4,18.8,30.02,SSW,210,2.0,11.0,86,0.00,,,0.00,151,Wunderground v.1.15,2013-02-02 18:35:00,
2013-02-02 13:45:00,22.5,18.9,30.02,South,190,2.0,11.0,86,0.00,,,0.00,169,Wunderground v.1.15,2013-02-02 18:45:00,
2013-02-02 13:50:00,22.5,19.2,30.02,South,190,3.0,11.0,87,0.00,,,0.00,186,Wunderground v.1.15,2013-02-02 18:50:00,
2013-02-02 13:55:00,22.6,19.3,30.01,SW,217,2.0,2.0,87,0.00,,,0.00,153,Wunderground v.1.15,2013-02-02 18:55:00,
2013-02-02 14:05:00,22.9,19.6,30.01,SSW,199,1.0,1.0,87,0.00,,,0.00,146,Wunderground v.1.15,2013-02-02 19:05:00,
2013-02-02 14:15:00,23.1,19.8,30.01,SSW,206,1.0,1.0,87,0.00,,,0.00,179,Wunderground v.1.15,2013-02-02 19:15:00,
2013-02-02 14:25:00,23.3,20.0,30.01,SSW,201,2.0,2.0,87,0.00,,,0.00,158,Wunderground v.1.15,2013-02-02 19:25:00,
2013-02-02 14:35:00,23.4,19.8,30.01,SSW,201,1.0,6.0,86,0.00,,,0.00,134,Wunderground v.1.15,2013-02-02 19:35:00,
2013-02-02 14:40:00,23.4,20.1,30.01,West,279,1.0,6.0,87,0.00,,,0.00,123,Wunderground v.1.15,2013-02-02 19:40:00,
2013-02-02 14:45:00,23.3,20.0,30.01,West,277,2.0,6.0,87,0.00,,,0.00,132,Wunderground v.1.15,2013-02-02 19:45:00,
2013-02-02 14:50:00,23.3,20.0,30.01,West,267,2.0,6.0,87,0.00,,,0.00,116,Wunderground v.1.15,2013-02-02 19:50:00,
2013-02-02 14:55:00,23.3,20.3,30.01,West,267,2.0,2.0,88,0.00,,,0.00,128,Wunderground v.1.15,2013-02-02 19:55:00,
2013-02-02 15:05:00,23.4,20.4,30.01,West,267,1.0,1.0,88,0.00,,,0.00,109,Wunderground v.1.15,2013-02-02 20:05:00,
2013-02-02 15:10:00,23.5,20.5,30.01,West,267,1.0,3.0,88,0.00,,,0.00,105,Wunderground v.1.15,2013-02-02 20:10:00,
2013-02-02 15:15:00,23.4,20.4,30.01,West,267,1.0,1.0,88,0.00,,,0.00,116,Wunderground v.1.15,2013-02-02 20:15:00,
2013-02-02 15:20:00,23.4,20.6,30.02,West,267,1.0,1.0,89,0.00,,,0.00,105,Wunderground v.1.15,2013-02-02 20:20:00,
2013-02-02 15:25:00,23.4,20.6,30.02,West,267,1.0,2.0,89,0.00,,,0.00,86,Wunderground v.1.15,2013-02-02 20:25:00,
2013-02-02 15:35:00,23.5,20.7,30.01,West,267,1.0,5.0,89,0.00,,,0.00,70,Wunderground v.1.15,2013-02-02 20:35:00,
2013-02-02 15:45:00,23.4,20.6,30.01,NW,307,2.0,2.0,89,0.00,,,0.00,47,Wunderground v.1.15,2013-02-02 20:45:00,
2013-02-02 15:50:00,23.4,20.9,30.02,NNW,345,2.0,4.0,90,0.00,,,0.00,30,Wunderground v.1.15,2013-02-02 20:50:00,
2013-02-02 15:55:00,23.0,20.2,30.02,NNW,340,4.0,10.0,89,0.00,,,0.00,51,Wunderground v.1.15,2013-02-02 20:55:00,
2013-02-02 16:05:00,22.2,19.5,30.02,North,360,6.0,9.0,89,0.00,,,0.00,79,Wunderground v.1.15,2013-02-02 21:05:00,
2013-02-02 16:10:00,22.0,19.3,30.02,North,355,6.0,9.0,89,0.00,,,0.00,84,Wunderground v.1.15,2013-02-02 21:10:00,
2013-02-02 16:15:00,21.9,19.2,30.03,North,349,6.0,8.0,89,0.00,,,0.00,84,Wunderground v.1.15,2013-02-02 21:15:00,
2013-02-02 16:20:00,21.6,18.9,30.03,North,10,7.0,9.0,89,0.00,,,0.00,70,Wunderground v.1.15,2013-02-02 21:20:00,
2013-02-02 16:25:00,21.4,18.7,30.03,North,355,7.0,7.0,89,0.00,,,0.00,67,Wunderground v.1.15,2013-02-02 21:25:00,
2013-02-02 16:30:00,21.2,18.5,30.03,North,355,6.0,7.0,89,0.00,,,0.00,56,Wunderground v.1.15,2013-02-02 21:30:00,
2013-02-02 16:40:00,20.8,17.8,30.03,North,5,7.0,8.0,88,0.00,,,0.00,60,Wunderground v.1.15,2013-02-02 21:40:00,
2013-02-02 16:45:00,20.7,17.7,30.03,North,351,7.0,7.0,88,0.00,,,0.00,53,Wunderground v.1.15,2013-02-02 21:45:00,
2013-02-02 16:50:00,20.7,18.0,30.04,North,351,5.0,7.0,89,0.00,,,0.00,46,Wunderground v.1.15,2013-02-02 21:50:00,
2013-02-02 16:55:00,20.7,18.0,30.04,North,10,4.0,6.0,89,0.00,,,0.00,35,Wunderground v.1.15,2013-02-02 21:55:00,
2013-02-02 17:05:00,20.2,17.2,30.04,North,350,3.0,6.0,88,0.00,,,0.00,30,Wunderground v.1.15,2013-02-02 22:05:00,
2013-02-02 17:15:00,19.7,16.7,30.04,North,349,5.0,5.0,88,0.00,,,0.00,23,Wunderground v.1.15,2013-02-02 22:15:00,
2013-02-02 17:20:00,19.6,16.6,30.04,North,355,5.0,5.0,88,0.00,,,0.00,14,Wunderground v.1.15,2013-02-02 22:20:00,
2013-02-02 17:30:00,19.4,16.4,30.05,North,351,4.0,11.0,88,0.00,,,0.00,9,Wunderground v.1.15,2013-02-02 22:30:00,
2013-02-02 17:35:00,19.3,16.3,30.05,North,355,4.0,4.0,88,0.00,,,0.00,7,Wunderground v.1.15,2013-02-02 22:35:00,
2013-02-02 17:40:00,19.3,16.3,30.05,North,355,3.0,5.0,88,0.00,,,0.00,5,Wunderground v.1.15,2013-02-02 22:40:00,
2013-02-02 17:50:00,19.1,16.1,30.06,NNW,333,3.0,6.0,88,0.00,,,0.00,0,Wunderground v.1.15,2013-02-02 22:50:00,
2013-02-02 17:55:00,19.0,16.0,30.06,NNW,340,4.0,4.0,88,0.00,,,0.00,0,Wunderground v.1.15,2013-02-02 22:55:00,
2013-02-02 18:05:00,18.8,15.6,30.06,NNW,340,3.0,4.0,87,0.00,,,0.00,0,Wunderground v.1.15,2013-02-02 23:05:00,
2013-02-02 18:10:00,18.7,15.2,30.06,NW,326,3.0,4.0,86,0.00,,,0.00,0,Wunderground v.1.15,2013-02-02 23:10:00,
2013-02-02 18:20:00,18.7,14.9,30.07,NNW,347,3.0,3.0,85,0.00,,,0.00,0,Wunderground v.1.15,2013-02-02 23:20:00,
2013-02-02 18:25:00,18.6,14.6,30.06,NNW,331,3.0,3.0,84,0.00,,,0.00,0,Wunderground v.1.15,2013-02-02 23:25:00,
2013-02-02 18:30:00,18.6,14.3,30.06,NW,319,3.0,7.0,83,0.00,,,0.00,0,Wunderground v.1.15,2013-02-02 23:30:00,
2013-02-02 18:35:00,18.6,14.3,30.07,NW,325,3.0,7.0,83,0.00,,,0.00,0,Wunderground v.1.15,2013-02-02 23:35:00,
2013-02-02 18:45:00,18.6,14.0,30.07,NNW,346,4.0,7.0,82,0.00,,,0.00,0,Wunderground v.1.15,2013-02-02 23:45:00,
2013-02-02 18:50:00,18.6,14.0,30.07,NNW,327,4.0,7.0,82,0.00,,,0.00,0,Wunderground v.1.15,2013-02-02 23:50:00,
2013-02-02 18:55:00,18.5,13.9,30.07,NNW,344,5.0,5.0,82,0.00,,,0.00,0,Wunderground v.1.15,2013-02-02 23:55:00,
2013-02-02 19:05:00,18.5,13.9,30.07,NW,323,4.0,4.0,82,0.00,,,0.00,0,Wunderground v.1.15,2013-02-03 00:05:00,
2013-02-02 19:10:00,18.4,13.5,30.08,NNW,342,4.0,5.0,81,0.00,,,0.00,0,Wunderground v.1.15,2013-02-03 00:10:00,
2013-02-02 19:20:00,18.2,13.6,30.08,NW,326,4.0,6.0,82,0.00,,,0.00,0,Wunderground v.1.15,2013-02-03 00:20:00,
2013-02-02 19:25:00,18.2,13.6,30.08,NW,317,4.0,4.0,82,0.00,,,0.00,0,Wunderground v.1.15,2013-02-03 00:25:00,
2013-02-02 19:35:00,17.9,13.3,30.08,North,355,5.0,5.0,82,0.00,,,0.00,0,Wunderground v.1.15,2013-02-03 00:35:00,
2013-02-02 19:40:00,17.7,13.1,30.08,North,350,4.0,6.0,82,0.00,,,0.00,0,Wunderground v.1.15,2013-02-03 00:40:00,
2013-02-02 19:50:00,17.4,13.4,30.08,North,5,4.0,6.0,84,0.00,,,0.00,0,Wunderground v.1.15,2013-02-03 00:50:00,
2013-02-02 19:55:00,17.2,15.3,30.08,North,349,4.0,4.0,92,0.00,,,0.00,0,Wunderground v.1.15,2013-02-03 00:55:00,
2013-02-02 20:05:00,16.4,12.1,30.09,NNE,12,3.0,3.0,83,0.00,,,0.00,0,Wunderground v.1.15,2013-02-03 01:05:00,
2013-02-02 20:15:00,15.7,11.7,30.09,North,355,3.0,4.0,84,0.00,,,0.00,0,Wunderground v.1.15,2013-02-03 01:15:00,
2013-02-02 20:25:00,15.3,11.3,30.09,North,360,3.0,3.0,84,0.00,,,0.00,0,Wunderground v.1.15,2013-02-03 01:25:00,
2013-02-02 20:35:00,14.8,11.1,30.09,North,360,0.0,9.0,85,0.00,,,0.00,0,Wunderground v.1.15,2013-02-03 01:35:00,
2013-02-02 20:40:00,14.6,10.9,30.09,NNE,16,1.0,9.0,85,0.00,,,0.00,0,Wunderground v.1.15,2013-02-03 01:40:00,
2013-02-02 20:45:00,14.5,10.8,30.09,NNE,23,3.0,3.0,85,0.00,,,0.00,0,Wunderground v.1.15,2013-02-03 01:45:00,
2013-02-02 20:50:00,14.4,10.7,30.09,NNE,19,3.0,4.0,85,0.00,,,0.00,0,Wunderground v.1.15,2013-02-03 01:50:00,
2013-02-02 20:55:00,14.4,10.7,30.09,North,360,3.0,3.0,85,0.00,,,0.00,0,Wunderground v.1.15,2013-02-03 01:55:00,
2013-02-02 21:05:00,14.5,10.3,30.09,North,355,4.0,4.0,83,0.00,,,0.00,0,Wunderground v.1.15,2013-02-03 02:05:00,
2013-02-02 21:15:00,14.5,10.0,30.09,NNE,21,3.0,5.0,82,0.00,,,0.00,0,Wunderground v.1.15,2013-02-03 02:15:00,
2013-02-02 21:25:00,14.4,9.9,30.09,North,5,2.0,2.0,82,0.00,,,0.00,0,Wunderground v.1.15,2013-02-03 02:25:00,
2013-02-02 21:35:00,14.0,9.5,30.09,North,5,2.0,7.0,82,0.00,,,0.00,0,Wunderground v.1.15,2013-02-03 02:35:00,
2013-02-02 21:40:00,13.9,9.1,30.09,North,5,2.0,7.0,81,0.00,,,0.00,0,Wunderground v.1.15,2013-02-03 02:40:00,
2013-02-02 21:50:00,13.6,8.9,30.09,North,5,0.0,7.0,81,0.00,,,0.00,0,Wunderground v.1.15,2013-02-03 02:50:00,
2013-02-02 21:55:00,13.4,8.9,30.10,North,5,0.0,0.0,82,0.00,,,0.00,0,Wunderground v.1.15,2013-02-03 02:55:00,
2013-02-02 22:05:00,13.1,8.6,30.09,North,5,0.0,0.0,82,0.00,,,0.00,0,Wunderground v.1.15,2013-02-03 03:05:00,
2013-02-02 22:15:00,12.8,8.3,30.09,North,5,0.0,0.0,82,0.00,,,0.00,0,Wunderground v.1.15,2013-02-03 03:15:00,
2013-02-02 22:20:00,12.7,8.5,30.09,North,5,0.0,0.0,83,0.00,,,0.00,0,Wunderground v.1.15,2013-02-03 03:20:00,
2013-02-02 22:30:00,12.3,8.1,30.09,North,5,0.0,8.0,83,0.00,,,0.00,0,Wunderground v.1.15,2013-02-03 03:30:00,
2013-02-02 22:35:00,12.2,8.0,30.09,North,5,0.0,8.0,83,0.00,,,0.00,0,Wunderground v.1.15,2013-02-03 03:35:00,
2013-02-02 22:40:00,12.2,8.0,30.09,North,5,0.0,8.0,83,0.00,,,0.00,0,Wunderground v.1.15,2013-02-03 03:40:00,
2013-02-02 22:45:00,12.1,7.9,30.09,North,5,0.0,8.0,83,0.00,,,0.00,0,Wunderground v.1.15,2013-02-03 03:45:00,
2013-02-02 22:50:00,11.9,7.7,30.09,North,5,0.0,8.0,83,0.00,,,0.00,0,Wunderground v.1.15,2013-02-03 03:50:00,
2013-02-02 22:55:00,11.3,6.9,30.09,North,5,0.0,0.0,82,0.00,,,0.00,0,Wunderground v.1.15,2013-02-03 03:55:00,
2013-02-02 23:05:00,10.2,5.8,30.09,North,5,0.0,0.0,82,0.00,,,0.00,0,Wunderground v.1.15,2013-02-03 04:05:00,
2013-02-02 23:15:00,9.5,5.9,30.09,North,5,0.0,0.0,85,0.00,,,0.00,0,Wunderground v.1.15,2013-02-03 04:15:00,
2013-02-02 23:25:00,8.8,5.2,30.09,North,5,0.0,0.0,85,0.00,,,0.00,0,Wunderground v.1.15,2013-02-03 04:25:00,
2013-02-02 23:30:00,8.5,4.9,30.09,North,5,0.0,0.0,85,0.00,,,0.00,0,Wunderground v.1.15,2013-02-03 04:30:00,
2013-02-02 23:35:00,8.2,4.9,30.09,North,5,0.0,0.0,86,0.00,,,0.00,0,Wunderground v.1.15,2013-02-03 04:35:00,
2013-02-02 23:40:00,8.0,4.7,30.09,North,5,0.0,0.0,86,0.00,,,0.00,0,Wunderground v.1.15,2013-02-03 04:40:00,
2013-02-02 23:45:00,7.7,4.6,30.09,North,5,0.0,0.0,87,0.00,,,0.00,0,Wunderground v.1.15,2013-02-03 04:45:00,
2013-02-02 23:50:00,7.5,4.4,30.08,North,5,0.0,0.0,87,0.00,,,0.00,0,Wunderground v.1.15,2013-02-03 04:50:00,
2013-02-02 23:55:00,7.2,4.1,30.08,North,5,0.0,0.0,87,0.00,,,0.00,0,Wunderground v.1.15,2013-02-03 04:55:00,